Location: Launois
(49.6535°N, 4.5395°E)
Time: 23:27:27
(UTC+00:00)

CZ-2D R/B - Pass Details

Date: 13 August 2024
Orbit: 790 x 842 km, 98.8° (Epoch: 07 September)

Event Time Altitude Azimuth Distance (km) Brightness Sun altitude
Rises 02:08:27 0° 13° (NNE) 3,331 6.5 -18.6°
Reaches altitude 10° 02:10:46 10° 13° (NNE) 2,403 5.6 -18.4°
Maximum altitude 02:16:05 77° 288° (WNW) 842 2.1 -17.9°
Enters shadow 02:18:51 30° 207° (SSW) 1,449 2.9 -17.6°
